Weather History for Sexton Summit, OR

Change the Weather History Date:

Tuesday, September 4, 2012

  Actual Average Record
Temperature  
Mean Temperature 65 °F -  
Max Temperature 77 °F 69 °F 89 °F (2003)
Min Temperature 55 °F 49 °F 39 °F (2000)
Growing Degree Days 15 (Base 50)    
Moisture  
Dew Point 43 °F    
Average Humidity 47    
Maximum Humidity 59    
Minimum Humidity 31    
Precipitation  
Precipitation 0.00 in - - ()
Sea Level Pressure  
Sea Level Pressure 30.02 in    
Wind  
Wind Speed 8 mph (North)    
Max Wind Speed 14 mph    
Max Gust Speed 17 mph    
Visibility 10 miles    
Events      
Averages and records for this station are not official NWS values.
T = Trace of Precipitation, MM = Missing Value Source: NWS Daily Summary

Daily Weather History Graph

Daily Weather History Graph

Search for Another Location

Airport:

Trip Planner

Search our weather history database for the weather conditions in past years. The results will help you decide how hot, cold, wet, or windy it might be!

Date:

Astronomy

Sep. 04, 2012 Rise Set
Actual Time 6:42 AM PDT 7:41 PM PDT
Civil Twilight 6:13 AM PDT 8:10 PM PDT
Nautical Twilight 5:39 AM PDT 8:44 PM PDT
Astronomical Twilight 5:03 AM PDT 9:20 PM PDT
Moon 9:30 PM PDT (9/4) 11:01 AM PDT (9/4)
Length of Visible Light 13h 56m
Length of Day
12h 59m
Waning Gibbous, 83% of the Moon is Illuminated
Sep 4
Waning Gibbous
Sep 8
Last Quarter
Sep 15
New
Sep 22
First Quarter
Sep 29
Full

Hourly Weather History & Observations

Time (PDT) Temp. Dew Point Humidity Pressure Visibility Wind Dir Wind Speed Gust Speed Precip Events Conditions
12:56 AM 55.0 °F 39.9 °F 57% 30.04 in 10.0 mi North 11.5 mph - N/A   Clear
1:56 AM 55.0 °F 41.0 °F 59% 30.03 in 10.0 mi North 10.4 mph - N/A   Clear
2:56 AM 55.0 °F 41.0 °F 59% 30.01 in 10.0 mi NNE 9.2 mph - N/A   Clear
3:56 AM 57.0 °F 42.1 °F 57% 30.02 in 10.0 mi NNE 5.8 mph - N/A   Clear
4:56 AM 60.1 °F 42.1 °F 51% 30.01 in 10.0 mi ENE 5.8 mph - N/A   Clear
5:56 AM 57.9 °F 42.1 °F 56% 30.03 in 10.0 mi NNE 5.8 mph - N/A   Clear
6:56 AM 60.1 °F 44.1 °F 55% 30.04 in 10.0 mi NE 6.9 mph - N/A   Clear
7:56 AM 63.0 °F 45.0 °F 52% 30.05 in 10.0 mi ENE 4.6 mph - N/A   Clear
8:56 AM 63.0 °F 46.0 °F 54% 30.06 in 10.0 mi Calm Calm - N/A   Clear
9:56 AM 66.0 °F 46.0 °F 48% 30.05 in 10.0 mi Calm Calm - N/A   Clear
10:56 AM 64.9 °F 45.0 °F 48% 30.07 in 10.0 mi Variable 3.5 mph - N/A   Clear
11:56 AM 70.0 °F 46.9 °F 44% 30.06 in 10.0 mi Variable 3.5 mph - N/A   Clear
12:56 PM 71.1 °F 48.0 °F 44% 30.05 in 10.0 mi Calm Calm - N/A   Clear
1:56 PM 73.0 °F 48.0 °F 41% 30.04 in 10.0 mi Calm Calm - N/A   Clear
2:56 PM 73.9 °F 45.0 °F 35% 30.03 in 10.0 mi Variable 6.9 mph - N/A   Clear
3:56 PM 75.0 °F 44.1 °F 33% 30.01 in 10.0 mi Variable 3.5 mph - N/A   Clear
4:56 PM 75.0 °F 42.1 °F 31% 29.98 in 10.0 mi Variable 3.5 mph - N/A   Clear
5:56 PM 71.1 °F 39.0 °F 31% 29.99 in 10.0 mi NNW 10.4 mph 16.1 mph N/A   Clear
6:56 PM 68.0 °F 41.0 °F 37% 29.99 in 10.0 mi NNW 9.2 mph 17.3 mph N/A   Clear
7:56 PM 64.0 °F 39.9 °F 41% 29.99 in 10.0 mi NNW 12.7 mph - N/A   Clear
8:56 PM 63.0 °F 39.9 °F 43% 30.00 in 10.0 mi North 12.7 mph - N/A   Clear
9:56 PM 62.1 °F 39.0 °F 43% 29.99 in 10.0 mi North 12.7 mph - N/A   Clear
10:56 PM 60.1 °F 41.0 °F 49% 30.00 in 10.0 mi North 12.7 mph - N/A   Clear
11:56 PM 60.1 °F 42.1 °F 51% 29.99 in 10.0 mi North 13.8 mph - N/A   Clear